• In Belarus
  • List of Countries
  • For 7 days
  • Water Temperature
  • Satellite Maps
  • Weather Map
  • Weather Widgets
  • user-avatar
    Login

    Hourly Weather Kavarna

    Today, 19 July, Thursday

    Time Temperature Precipitation Wind Pressure Humidity
    00:00 +21°C° 0.3 mm 6 mps 751 mmHg 80%
    01:00 +21°C° 0.3 mm 6 mps 751 mmHg 81%
    02:00 +21°C° 0 mm 6 mps 751 mmHg 84%
    03:00 +20°C° 0.3 mm 6 mps 751 mmHg 84%
    04:00 +20°C° 0.3 mm 7 mps 751 mmHg 85%
    05:00 +20°C° 0.3 mm 7 mps 751 mmHg 86%
    06:00 +21°C° 0.1 mm 7 mps 751 mmHg 82%
    07:00 +22°C° 0.1 mm 7 mps 751 mmHg 78%
    08:00 +23°C° 0.1 mm 7 mps 751 mmHg 74%
    09:00 +24°C° 0.2 mm 6 mps 752 mmHg 69%
    10:00 +27°C° 0.2 mm 5 mps 752 mmHg 63%
    11:00 +28°C° 0.2 mm 5 mps 752 mmHg 58%
    12:00 +29°C° 0.3 mm 4 mps 752 mmHg 58%
    13:00 +29°C° 0.3 mm 3 mps 752 mmHg 58%
    14:00 +29°C° 0.3 mm 2 mps 752 mmHg 58%
    15:00 +29°C° 0.4 mm 3 mps 752 mmHg 59%
    16:00 +28°C° 0.4 mm 3 mps 752 mmHg 60%
    17:00 +28°C° 0.4 mm 3 mps 752 mmHg 62%
    18:00 +27°C° 0.1 mm 3 mps 752 mmHg 67%
    19:00 +26°C° 0.1 mm 3 mps 752 mmHg 72%
    20:00 +24°C° 0.1 mm 2 mps 753 mmHg 78%
    21:00 +24°C° 0.1 mm 3 mps 753 mmHg 80%
    22:00 +24°C° 0.1 mm 3 mps 753 mmHg 82%
    23:00 +22°C° 0.1 mm 4 mps 753 mmHg 84%

    Tomorrow, 20 July, Friday

    Time Temperature Precipitation Wind Pressure Humidity
    00:00 +22°C° 0 mm 4 mps 753 mmHg 85%
    01:00 +22°C° 0 mm 5 mps 754 mmHg 86%
    02:00 +22°C° 0 mm 5 mps 754 mmHg 87%
    03:00 +22°C° 0 mm 6 mps 754 mmHg 88%
    04:00 +22°C° 0 mm 6 mps 754 mmHg 89%
    05:00 +21°C° 0 mm 7 mps 754 mmHg 90%
    06:00 +23°C° 0 mm 7 mps 754 mmHg 85%
    07:00 +24°C° 0 mm 7 mps 754 mmHg 81%
    08:00 +26°C° 0 mm 7 mps 754 mmHg 76%
    09:00 +27°C° 0.1 mm 6 mps 755 mmHg 70%
    10:00 +29°C° 0.1 mm 6 mps 755 mmHg 64%
    11:00 +30°C° 0.1 mm 5 mps 755 mmHg 58%
    12:00 +32°C° 0.2 mm 4 mps 755 mmHg 56%
    13:00 +31°C° 0.2 mm 3 mps 755 mmHg 54%
    14:00 +32°C° 0.2 mm 2 mps 754 mmHg 52%
    15:00 +31°C° 0.6 mm 2 mps 754 mmHg 55%
    16:00 +31°C° 0.6 mm 2 mps 754 mmHg 59%
    17:00 +30°C° 0.6 mm 2 mps 754 mmHg 62%
    18:00 +29°C° 0.2 mm 3 mps 754 mmHg 66%
    19:00 +28°C° 0.2 mm 3 mps 755 mmHg 70%
    20:00 +27°C° 0.2 mm 3 mps 755 mmHg 74%
    21:00 +26°C° 0.3 mm 3 mps 755 mmHg 76%
    22:00 +26°C° 0.3 mm 4 mps 755 mmHg 77%
    23:00 +26°C° 0.3 mm 4 mps 755 mmHg 79%

    Day after tomorrow, 21 July, Saturday

    Time Temperature Precipitation Wind Pressure Humidity
    00:00 +25°C° 0.7 mm 4 mps 755 mmHg 82%
    01:00 +25°C° 0.7 mm 4 mps 755 mmHg 85%
    02:00 +23°C° 0.7 mm 4 mps 755 mmHg 88%
    03:00 +23°C° 0.5 mm 4 mps 755 mmHg 88%
    04:00 +22°C° 0.5 mm 4 mps 755 mmHg 89%
    05:00 +22°C° 0.5 mm 4 mps 756 mmHg 89%
    06:00 +23°C° 0.1 mm 4 mps 756 mmHg 85%
    07:00 +25°C° 0.1 mm 4 mps 756 mmHg 81%
    08:00 +27°C° 0.1 mm 4 mps 756 mmHg 77%
    09:00 +27°C° 0.8 mm 3 mps 756 mmHg 74%
    10:00 +28°C° 0.8 mm 3 mps 756 mmHg 70%
    11:00 +29°C° 0.8 mm 2 mps 756 mmHg 67%
    12:00 +29°C° 0.6 mm 2 mps 756 mmHg 65%
    13:00 +30°C° 0.6 mm 2 mps 756 mmHg 64%
    14:00 +30°C° 0.6 mm 2 mps 756 mmHg 62%
    15:00 +30°C° 0.1 mm 2 mps 756 mmHg 62%
    16:00 +30°C° 0.1 mm 2 mps 756 mmHg 62%
    17:00 +30°C° 0.1 mm 2 mps 756 mmHg 62%
    18:00 +29°C° 0.2 mm 2 mps 756 mmHg 67%
    19:00 +27°C° 0.2 mm 2 mps 756 mmHg 73%
    20:00 +26°C° 0.2 mm 1 mps 756 mmHg 78%
    21:00 +26°C° 0 mm 1 mps 756 mmHg 79%
    22:00 +25°C° 0 mm 1 mps 756 mmHg 80%
    23:00 +25°C° 0 mm 1 mps 756 mmHg 81%

    22 July, Sunday

    Time Temperature Precipitation Wind Pressure Humidity
    00:00 +25°C° 0.1 mm 2 mps 756 mmHg 81%
    01:00 +25°C° 0.1 mm 2 mps 756 mmHg 81%
    02:00 +24°C° 0.1 mm 2 mps 756 mmHg 82%
    03:00 +24°C° 0 mm 2 mps 756 mmHg 82%
    04:00 +24°C° 0 mm 2 mps 756 mmHg 82%
    05:00 +24°C° 0 mm 2 mps 756 mmHg 82%
    06:00 +25°C° 0.2 mm 2 mps 756 mmHg 77%
    07:00 +27°C° 0.2 mm 2 mps 756 mmHg 72%
    08:00 +28°C° 0.2 mm 2 mps 756 mmHg 67%
    09:00 +29°C° 0.3 mm 1 mps 756 mmHg 63%
    10:00 +30°C° 0.3 mm 1 mps 756 mmHg 59%
    11:00 +31°C° 0.3 mm 1 mps 756 mmHg 55%
    12:00 +31°C° 0.5 mm 2 mps 756 mmHg 55%
    13:00 +31°C° 0.5 mm 2 mps 755 mmHg 55%
    14:00 +31°C° 0.5 mm 2 mps 755 mmHg 54%
    15:00 +31°C° 0 mm 3 mps 755 mmHg 56%
    16:00 +31°C° 0 mm 3 mps 755 mmHg 58%
    17:00 +32°C° 0 mm 4 mps 754 mmHg 60%
    18:00 +29°C° 0 mm 4 mps 754 mmHg 66%
    19:00 +28°C° 0 mm 4 mps 754 mmHg 72%
    20:00 +26°C° 0 mm 4 mps 754 mmHg 77%
    21:00 +26°C° 0.2 mm 4 mps 754 mmHg 80%
    22:00 +26°C° 0.2 mm 4 mps 754 mmHg 82%
    23:00 +25°C° 0.2 mm 4 mps 754 mmHg 85%

    23 July, Monday

    Time Temperature Precipitation Wind Pressure Humidity
    00:00 +25°C° 0.1 mm 4 mps 754 mmHg 86%
    01:00 +25°C° 0.1 mm 4 mps 754 mmHg 87%
    02:00 +25°C° 0.1 mm 4 mps 754 mmHg 88%
    03:00 +25°C° 0.2 mm 3 mps 753 mmHg 88%
    04:00 +25°C° 0.2 mm 3 mps 753 mmHg 87%
    05:00 +25°C° 0.2 mm 3 mps 753 mmHg 86%
    06:00 +26°C° 0.1 mm 3 mps 753 mmHg 84%
    07:00 +27°C° 0.1 mm 3 mps 753 mmHg 82%
    08:00 +27°C° 0.1 mm 4 mps 753 mmHg 80%
    09:00 +28°C° 0.7 mm 5 mps 752 mmHg 75%
    10:00 +29°C° 0.7 mm 5 mps 752 mmHg 71%
    11:00 +30°C° 0.7 mm 6 mps 752 mmHg 67%
    12:00 +30°C° 0.1 mm 6 mps 752 mmHg 65%
    13:00 +30°C° 0.1 mm 6 mps 752 mmHg 64%
    14:00 +30°C° 0.1 mm 7 mps 751 mmHg 62%
    15:00 +30°C° 0 mm 7 mps 751 mmHg 64%
    16:00 +29°C° 0 mm 7 mps 751 mmHg 66%
    17:00 +29°C° 0 mm 8 mps 751 mmHg 68%
    18:00 +28°C° 0.1 mm 8 mps 751 mmHg 73%
    19:00 +27°C° 0.1 mm 7 mps 751 mmHg 78%
    20:00 +26°C° 0.1 mm 7 mps 751 mmHg 83%
    21:00 +26°C° 0.7 mm 7 mps 751 mmHg 84%
    22:00 +26°C° 0.7 mm 6 mps 751 mmHg 85%
    23:00 +24°C° 0.7 mm 6 mps 751 mmHg 86%

    24 July, Tuesday

    Time Temperature Precipitation Wind Pressure Humidity
    00:00 +25°C° 2.2 mm 5 mps 751 mmHg 87%
    01:00 +23°C° 2.2 mm 5 mps 751 mmHg 87%
    02:00 +23°C° 2.2 mm 5 mps 751 mmHg 88%
    03:00 +23°C° 0.1 mm 5 mps 751 mmHg 88%
    04:00 +23°C° 0.1 mm 5 mps 751 mmHg 88%
    05:00 +23°C° 0.1 mm 5 mps 751 mmHg 88%
    06:00 +25°C° 0.1 mm 5 mps 752 mmHg 84%
    07:00 +26°C° 0.1 mm 5 mps 752 mmHg 80%
    08:00 +27°C° 0.1 mm 5 mps 752 mmHg 76%
    09:00 +28°C° 0.6 mm 5 mps 753 mmHg 73%
    10:00 +28°C° 0.6 mm 6 mps 753 mmHg 70%
    11:00 +29°C° 0.6 mm 6 mps 753 mmHg 67%
    12:00 +29°C° 0.1 mm 6 mps 753 mmHg 65%
    13:00 +30°C° 0.1 mm 6 mps 753 mmHg 63%
    14:00 +30°C° 0.1 mm 6 mps 753 mmHg 61%
    15:00 +30°C° 0.2 mm 6 mps 753 mmHg 63%
    16:00 +29°C° 0.2 mm 6 mps 753 mmHg 65%
    17:00 +29°C° 0.2 mm 5 mps 753 mmHg 67%
    18:00 +28°C° 0 mm 5 mps 753 mmHg 72%
    19:00 +26°C° 0 mm 5 mps 754 mmHg 78%
    20:00 +25°C° 0 mm 4 mps 754 mmHg 84%
    21:00 +25°C° 0 mm 4 mps 754 mmHg 85%
    22:00 +23°C° 0 mm 4 mps 754 mmHg 87%
    23:00 +23°C° 0 mm 4 mps 754 mmHg 89%
    Show more